Date String (YYYY-MM-DD hh:mm:ss) UTC,Instrument flags,Ambient pressure (hPa),Sample flow (lpm),Bypass flow (lpm),Sample temperature (°C),Ambient temperature (°C),ASC tube jacket temperature (°C),LED temperature (°C),Box temperature (°C),Sample RH (%),Span deviation,Mass concentration (μg/m³),Mass concentration (μg/m³),Mass concentration (μg/m³)
DateTimeUTC,F1_M11,P_M11,Q1_M11,Q2_M11,T1_M11,T2_M11,T3_M11,T4_M11,T5_M11,U1_M11,ZSPAN_M11,X0_M11,X2_M11,X1_M11
2022-11-11 23:00:00,,0826.5,5.01,0.00,23.6,22.3,00.0,32.4,25.5,09.5,-000.8,0012.27,0007.09,0006.57
2022-11-11 23:01:00,,0826.5,5.00,0.00,23.6,22.3,00.0,32.4,25.5,09.5,-000.9,0012.44,0007.07,0006.56
2022-11-11 23:02:00,,0826.5,5.00,0.00,23.6,22.3,00.0,32.4,25.5,09.5,-001.0,0012.63,0007.02,0006.54
2022-11-11 23:03:00,,0826.5,5.00,0.00,23.6,22.3,00.0,32.4,25.5,09.5,-000.9,0012.37,0007.02,0006.51
2022-11-11 23:04:00,,0826.5,5.01,0.00,23.6,22.3,00.0,32.4,25.5,09.5,-000.7,0013.41,0007.03,0006.50
2022-11-11 23:05:00,,0826.5,5.00,0.00,23.6,22.3,00.0,32.4,25.5,09.5,-000.2,0013.33,0007.02,0006.49
2022-11-11 23:06:00,,0826.5,4.99,0.00,23.6,22.4,00.0,32.4,25.5,09.5,-000.1,0013.49,0007.03,0006.48
2022-11-11 23:07:00,,0826.5,5.01,0.00,23.7,22.4,00.0,32.4,25.5,09.5,0000.3,0013.54,0007.02,0006.47
2022-11-11 23:08:00,,0826.5,5.01,0.00,23.7,22.4,00.0,32.4,25.5,09.5,0000.5,0013.06,0006.98,0006.44
2022-11-11 23:09:00,,0826.5,5.00,0.00,23.7,22.4,00.0,32.4,25.5,09.5,0000.8,0013.03,0006.95,0006.43
2022-11-11 23:10:00,,0826.5,5.00,0.00,23.7,22.5,00.0,32.4,25.5,09.5,0000.5,0013.09,0006.92,0006.41
2022-11-11 23:11:00,,0826.5,4.98,0.00,23.7,22.5,00.0,32.5,25.5,09.5,0000.4,0013.44,0006.94,0006.40
2022-11-11 23:12:00,,0826.5,5.00,0.00,23.7,22.5,00.0,32.5,25.5,09.5,0000.8,0013.16,0006.95,0006.41
2022-11-11 23:13:00,,0826.5,5.00,0.00,23.7,22.5,00.0,32.5,25.5,09.5,0001.3,0013.66,0006.99,0006.41
2022-11-11 23:14:00,,0826.5,5.01,0.00,23.7,22.5,00.0,32.5,25.6,09.5,0001.7,0013.16,0006.98,0006.42
2022-11-11 23:15:00,,0826.5,5.00,0.00,23.7,22.5,00.0,32.5,25.6,09.5,0002.1,0012.28,0006.97,0006.44
2022-11-11 23:16:00,,0826.5,5.00,0.00,23.7,22.5,00.0,32.5,25.6,09.5,0002.2,0012.09,0006.97,0006.45
2022-11-11 23:17:00,,0826.5,5.00,0.00,23.7,22.5,00.0,32.5,25.6,09.5,0002.3,0012.12,0006.98,0006.45
2022-11-11 23:18:00,,0826.5,5.00,0.00,23.7,22.5,00.0,32.5,25.6,09.5,0002.1,0012.38,0006.98,0006.45
2022-11-11 23:19:00,,0826.5,5.00,0.00,23.7,22.5,00.0,32.5,25.6,09.5,0001.8,0012.62,0007.00,0006.46
2022-11-11 23:20:00,,0826.5,4.99,0.00,23.8,22.6,00.0,32.5,25.6,09.5,0001.6,0012.18,0007.01,0006.46
2022-11-11 23:21:00,,0826.5,5.01,0.00,23.8,22.6,00.0,32.5,25.6,09.5,0001.6,0012.09,0007.00,0006.46
2022-11-11 23:22:00,,0826.5,5.00,0.00,23.8,22.6,00.0,32.5,25.6,09.5,0002.1,0011.94,0007.04,0006.46
2022-11-11 23:23:00,,0826.5,4.99,0.00,23.8,22.6,00.0,32.5,25.7,09.5,0001.9,0013.06,0007.07,0006.46
2022-11-11 23:24:00,,0826.5,4.99,0.00,23.8,22.6,00.0,32.5,25.7,09.5,0001.7,0012.57,0007.06,0006.47
2022-11-11 23:25:00,,0826.5,5.00,0.00,23.8,22.6,00.0,32.5,25.7,09.5,0001.2,0012.40,0007.04,0006.48
2022-11-11 23:26:00,,0826.5,5.00,0.00,23.8,22.6,00.0,32.5,25.7,09.5,0000.7,0012.39,0007.04,0006.48
2022-11-11 23:27:00,,0826.6,5.00,0.00,23.8,22.6,00.0,32.5,25.7,09.5,-000.3,0012.35,0007.05,0006.47
2022-11-11 23:28:00,,0826.6,5.00,0.00,23.8,22.6,00.0,32.5,25.7,09.5,-000.4,0013.08,0007.06,0006.47
2022-11-11 23:29:00,,0826.6,5.01,0.00,23.8,22.6,00.0,32.5,25.7,09.5,-000.4,0013.12,0007.05,0006.48
2022-11-11 23:30:00,,0826.6,5.01,0.00,23.9,22.6,00.0,32.5,25.7,09.5,-000.2,0013.19,0007.10,0006.51
2022-11-11 23:31:00,,0826.6,5.00,0.00,23.9,22.6,00.0,32.5,25.8,09.5,-000.4,0012.96,0007.11,0006.52
2022-11-11 23:32:00,,0826.5,5.00,0.00,23.9,22.6,00.0,32.6,25.7,09.5,-000.6,0013.68,0007.16,0006.55
2022-11-11 23:33:00,,0826.5,4.98,0.00,23.9,22.6,00.0,32.6,25.8,09.5,-000.5,0014.70,0007.21,0006.59
2022-11-11 23:34:00,,0826.5,5.00,0.00,23.9,22.7,00.0,32.6,25.8,09.5,-000.4,0014.01,0007.18,0006.61
2022-11-11 23:35:00,,0826.6,5.00,0.00,23.9,22.7,00.0,32.6,25.8,09.5,-000.6,0013.23,0007.20,0006.64
2022-11-11 23:36:00,,0826.6,5.00,0.00,23.9,22.6,00.0,32.6,25.8,09.5,-000.9,0013.33,0007.25,0006.68
2022-11-11 23:37:00,,0826.6,5.01,0.00,23.9,22.6,00.0,32.6,25.8,09.5,-001.1,0013.48,0007.33,0006.71
2022-11-11 23:38:00,,0826.6,5.00,0.00,23.9,22.6,00.0,32.6,25.9,09.5,-001.3,0014.08,0007.36,0006.75
2022-11-11 23:39:00,,0826.6,5.00,0.00,23.9,22.6,00.0,32.6,25.9,09.5,-001.6,0014.01,0007.42,0006.78
2022-11-11 23:40:00,,0826.6,5.00,0.00,23.9,22.6,00.0,32.6,25.9,09.5,-001.7,0013.81,0007.46,0006.80
2022-11-11 23:41:00,,0826.6,5.00,0.00,23.9,22.6,00.0,32.6,25.9,09.5,-001.8,0013.52,0007.47,0006.83
2022-11-11 23:42:00,,0826.6,5.00,0.00,23.9,22.6,00.0,32.6,25.9,09.5,-002.1,0014.04,0007.51,0006.85
2022-11-11 23:43:00,,0826.7,5.00,0.00,23.9,22.7,00.0,32.6,25.9,09.5,-002.1,0014.19,0007.54,0006.86
2022-11-11 23:44:00,,0826.7,5.00,0.00,23.9,22.7,00.0,32.6,25.9,09.5,-002.0,0012.93,0007.51,0006.86
2022-11-11 23:45:00,,0826.7,5.02,0.00,23.9,22.6,00.0,32.6,25.9,09.5,-001.8,0013.29,0007.53,0006.88
2022-11-11 23:46:00,,0826.7,5.00,0.00,23.9,22.6,00.0,32.6,25.9,09.5,-002.2,0014.31,0007.56,0006.89
2022-11-11 23:47:00,,0826.7,5.00,0.00,24.0,22.7,00.0,32.7,25.9,09.5,-002.1,0014.45,0007.60,0006.90
2022-11-11 23:48:00,,0826.7,5.00,0.00,24.0,22.7,00.0,32.7,25.9,09.5,-001.9,0014.99,0007.56,0006.90
2022-11-11 23:49:00,,0826.7,5.00,0.00,24.0,22.7,00.0,32.7,25.9,09.5,-001.3,0014.57,0007.58,0006.92
2022-11-11 23:50:00,,0826.7,5.00,0.00,24.0,22.7,00.0,32.7,25.9,09.5,-000.5,0014.17,0007.60,0006.93
2022-11-11 23:51:00,,0826.7,4.99,0.00,24.0,22.7,00.0,32.7,25.9,09.5,0000.0,0013.96,0007.61,0006.93
2022-11-11 23:52:00,,0826.7,5.00,0.00,24.0,22.7,00.0,32.7,25.9,09.5,0000.2,0014.16,0007.61,0006.93
2022-11-11 23:53:00,,0826.7,5.02,0.00,24.0,22.7,00.0,32.7,25.9,09.5,0000.4,0013.87,0007.63,0006.94
2022-11-11 23:54:00,,0826.7,5.00,0.00,24.0,22.7,00.0,32.7,25.9,09.5,0000.6,0013.57,0007.64,0006.94
2022-11-11 23:55:00,,0826.7,5.00,0.00,24.0,22.7,00.0,32.7,25.9,09.5,0000.9,0013.78,0007.68,0006.97
2022-11-11 23:56:00,,0826.7,5.00,0.00,24.0,22.7,00.0,32.7,25.9,09.4,0000.5,0013.37,0007.69,0006.98
2022-11-11 23:57:00,,0826.7,5.00,0.00,24.0,22.7,00.0,32.7,25.9,09.4,0000.7,0012.65,0007.71,0006.99
2022-11-11 23:58:00,,0826.7,4.99,0.00,24.0,22.7,00.0,32.7,25.9,09.4,0000.4,0012.51,0007.73,0007.00
2022-11-11 23:59:00,,0826.8,4.99,0.00,24.0,22.6,00.0,32.7,25.9,09.4,0000.3,0011.85,0007.75,0007.00
